Location: Unspecified
(50.7693°N, 0.0000°E)
Time: 22:14:56
(UTC+00:00)

deb Explorer IX - Pass Details

Date: 25 June 2019
Orbit: 544 x 1107 km, 38.8° (Epoch: 12 October)

Event Time Altitude Azimuth Distance (km) Brightness Sun altitude
Rises 15:41:50 0° 258° (WSW) 3,865 ? 39.9°
Reaches altitude 10° 15:44:55 10° 247° (WSW) 2,943 ? 39.5°
Maximum altitude 15:50:59 29° 191° (SSW) 1,897 ? 38.5°
Drops below altitude 10° 15:56:59 10° 135° (SE) 2,912 ? 37.6°
Sets 16:00:01 0° 125° (SE) 3,817 ? 37.1°
